{"data":{"norad_id":49167,"epoch":"2026-09-20T03:15:22.966272Z","epoch_age_seconds":72727,"freshness":"FRESH","line1":"1 49167U 21082AP  26263.13568248  .00000709  00000+0  67222-4 0  9994","line2":"2 49167  69.9994 164.1814 0002681 271.4567  88.6285 14.98329371276301","mean_motion":14.98329371,"eccentricity":0.0002681,"inclination_deg":69.9994,"raan_deg":164.1814,"arg_perigee_deg":271.4567,"mean_anomaly_deg":88.6285,"bstar":6.7222e-5,"rev_number":27630,"period_min":96.107039471497,"perigee_km":570.19448884016,"apogee_km":573.92118331126,"semimajor_km":6950.1948360757,"source":"CELESTRAK","updated_at":"2026-09-20T09:00:39.252929Z"}}